HULIANWANG DIGUI-60

导读

HULIANWANG DIGUI-60是中国在2025年8月13日发射的低轨互联网卫星,隶属于低轨卫星互联网星座系统。低轨卫星互联网星座通过构建全球覆盖的卫星通信网络,可弥补地面通信覆盖盲区,为全球各类用户提供泛在互联服务,助力天地一体化信息网络建设。

基本信息
目录编号:
65166
目录名称:
HULIANWANG DIGUI-60
国际标识:
2025-174C
轨道中心:
EARTH
卫星名称:
HULIANWANG DIGUI-60
卫星全名:
HULIANWANG DIGUI-60
卫星状态:
在轨 (已飞行394 天)
发射日期:
2025-08-13 UTC
国别 :
中国 (CN)
星等 :
--
轨道信息
数据来源 国际轨道数据 AOE轨道数据
星历时间 2026-09-10T23:38:08+0800
11小时前
查看轨道信息
2026-09-10T12:00:00+0800
23小时前
查看轨道信息
半长轴 7546.101km 7546.109km
偏心率 0.0002279 0.0002145
轨道倾角 86.496° 86.498°
近地点辐角 81.148° 75.561°
升交点赤经 223.139° 223.302°
平近点角 278.991° 134.343°
近地点 1166.244km 1166.353km
远地点 1169.684km 1169.591km
周期 108.729分钟 108.729分钟
每日圈数 13.243991 13.243971
详细信息
使用方式:
暂无
2D轨道图
3D轨道图
轨道高度分析图
轨道倾角分析图
轨道综合分析图
查看轨道综合分析图
交会数据列表
事件ID 空间交会对象 最接近时刻(TCA) 交会距离 交会风险概率(CRP) 交会风险指数(CRI) 操作
CDM_260913-141304-529006-516621
2026-09-13T
14:13:08+0000
1.496 km
极远距离
6.65109E-6 低风险 0.51
与全量物体交会距离演化趋势
与全量物体交会风险概率演化趋势